星链-2517 (STARLINK-2517 )

导读

STARLINK-2517是美国SpaceX星链星座的成员卫星,于2021年4月29日发射升空,属于星链互联网卫星组网的一部分,部署近地轨道,为全球提供高速低延迟卫星互联网服务,覆盖偏远地区、海事、航空等场景,补充地面网络覆盖缺口,支撑星链全球互联布局,助力消费互联网及特殊行业场景的宽带接入服务。

基本信息
目录编号:
48309
目录名称:
STARLINK-2517
国际标识:
2021-036AK
轨道中心:
EARTH
卫星名称:
星链-2517
卫星全名:
星链-2517 (STARLINK-2517 )
卫星状态:
在轨 (已飞行1961 天)
发射日期:
2021-04-29 UTC
国别 :
美国 (US)
星等 :
--
该卫星已列入 空间交会检测服务 Space Conjunction Data Service (SCDS) ,当前飞行风险评估等级: 无高风险
轨道信息
数据来源 国际轨道数据
星历时间: 2026-09-10T18:32:29+0800
1天前
查看轨道信息
半长轴: 6848.889km
偏心率: 0.000133
轨道倾角: 53.160°
近地点辐角 89.375°
升交点赤经 309.124°
平近点角 270.740°
近地点: 469.841km
远地点: 471.663km
周期: 94.013分钟
每日圈数: 15.316963
详细信息
固有亮度:
5
最大亮度:
2.5
卫星平台:
Starlink V1.0
覆盖范围:
全球
运营商:
太空探索技术公司
运营商所在国:
美国
制造商(研发单位):
太空探索技术公司
制造商所在国:
美国
使用方式:
暂无
卫星简介
星链(Starlink)计划是由太空探索技术公司(SpaceX)提出的一个巨型低轨卫星互联网星座项目,计划在2019年至2024年间在太空搭建由约1.2万颗卫星组成的“星链”网络,其中1584颗将部署在地球上空550千米处的近地轨道,并从2020年开始工作。该卫星仍在工作。
2D轨道图
3D轨道图
轨道高度分析图
轨道倾角分析图
轨道综合分析图
查看轨道综合分析图
交会数据列表
事件ID 空间交会对象 最接近时刻(TCA) 交会距离 交会风险概率(CRP) 交会风险指数(CRI) 操作
CDM_260911-080504-830906-810921
2026-09-11T
08:05:41+0000
2.712 km
极远距离
1.31123E-6 低风险 0.37
CDM_260912-131704-830906-815221
2026-09-12T
13:17:55+0000
2.865 km
极远距离
8.806438E-7 极低风险 0.34
与全量物体交会距离演化趋势
与全量物体交会风险概率演化趋势